www.luftgeist.de
Wetterdaten: aktuell Mittwoch, 24.04.2019 17:45
Datum Zeit Auentemp. Sonne (%) Auenfeuchte Luftdruck Regenmenge Wind Windichtung Windichtung Sonnenschein Niederschlag Taupunkt Windchill Windben
24.04.2019 17:45 24,3 C 69 % 42 % 1002,9 hPa 0,0 l/m 7,7 km/h (2 Bft) O 90 0 min 0 min 10,6 C 24,3 C 10,8 km/h (2 Bft)
24.04.2019 17:40 24,4 C 78 % 43 % 1002,9 hPa 0,0 l/m 6,8 km/h (2 Bft) NO 45 0 min 0 min 11,0 C 24,4 C 11,1 km/h (2 Bft)
24.04.2019 17:35 24,4 C 85 % 42 % 1002,9 hPa 0,0 l/m 7,1 km/h (2 Bft) O-SO 112 0 min 0 min 10,6 C 24,4 C 9,5 km/h (2 Bft)
24.04.2019 17:30 24,5 C 78 % 42 % 1002,9 hPa 0,0 l/m 7,1 km/h (2 Bft) O-SO 112 0 min 0 min 10,7 C 24,5 C 5,3 km/h (1 Bft)
24.04.2019 17:25 24,6 C 78 % 41 % 1002,9 hPa 0,0 l/m 10,0 km/h (2 Bft) NO 45 0 min 0 min 10,5 C 24,6 C 9,5 km/h (2 Bft)
24.04.2019 17:20 24,6 C 85 % 41 % 1002,9 hPa 0,0 l/m 11,6 km/h (2 Bft) NW 315 5 min 0 min 10,5 C 24,6 C 22,7 km/h (4 Bft)
24.04.2019 17:15 24,7 C 88 % 41 % 1002,9 hPa 0,0 l/m 10,5 km/h (2 Bft) NO 45 5 min 0 min 10,6 C 24,7 C 10,0 km/h (2 Bft)
24.04.2019 17:10 24,7 C 88 % 41 % 1002,9 hPa 0,0 l/m 10,1 km/h (2 Bft) N-NO 22 5 min 0 min 10,6 C 24,7 C 14,3 km/h (3 Bft)
24.04.2019 17:05 24,7 C 88 % 42 % 1003,2 hPa 0,0 l/m 10,5 km/h (2 Bft) NO 45 5 min 0 min 10,9 C 24,7 C 14,2 km/h (3 Bft)
24.04.2019 17:00 24,5 C 88 % 42 % 1003,2 hPa 0,0 l/m 10,3 km/h (2 Bft) N-NW 337 5 min 0 min 10,7 C 24,5 C 12,2 km/h (2 Bft)
24.04.2019 16:55 24,7 C 89 % 41 % 1003,2 hPa 0,0 l/m 9,7 km/h (2 Bft) O 90 5 min 0 min 10,6 C 24,7 C 14,3 km/h (3 Bft)
24.04.2019 16:50 24,8 C 89 % 42 % 1003,2 hPa 0,0 l/m 9,8 km/h (2 Bft) NO 45 5 min 0 min 11,0 C 24,8 C 10,0 km/h (2 Bft)
24.04.2019 16:45 24,8 C 89 % 41 % 1003,2 hPa 0,0 l/m 10,3 km/h (2 Bft) NO 45 5 min 0 min 10,6 C 24,8 C 11,1 km/h (2 Bft)
24.04.2019 16:40 24,6 C 89 % 42 % 1003,2 hPa 0,0 l/m 10,6 km/h (2 Bft) NO 45 5 min 0 min 10,8 C 24,6 C 18,2 km/h (3 Bft)
24.04.2019 16:35 24,4 C 89 % 43 % 1003,2 hPa 0,0 l/m 9,7 km/h (2 Bft) NO 45 5 min 0 min 11,0 C 24,4 C 14,8 km/h (3 Bft)
24.04.2019 16:30 24,6 C 77 % 42 % 1003,2 hPa 0,0 l/m 9,3 km/h (2 Bft) N-NO 22 0 min 0 min 10,8 C 24,6 C 14,3 km/h (3 Bft)
24.04.2019 16:25 24,6 C 89 % 44 % 1003,4 hPa 0,0 l/m 10,6 km/h (2 Bft) NO 45 5 min 0 min 11,5 C 24,6 C 12,4 km/h (3 Bft)
24.04.2019 16:20 24,4 C 89 % 42 % 1003,4 hPa 0,0 l/m 11,6 km/h (2 Bft) O-NO 67 5 min 0 min 10,6 C 24,4 C 11,3 km/h (2 Bft)
24.04.2019 16:15 24,5 C 89 % 43 % 1003,4 hPa 0,0 l/m 9,2 km/h (2 Bft) S 180 5 min 0 min 11,1 C 24,5 C 18,0 km/h (3 Bft)
24.04.2019 16:10 24,5 C 89 % 43 % 1003,4 hPa 0,0 l/m 8,9 km/h (2 Bft) NO 45 5 min 0 min 11,1 C 24,5 C 7,7 km/h (2 Bft)
24.04.2019 16:05 24,2 C 89 % 43 % 1003,5 hPa 0,0 l/m 10,6 km/h (2 Bft) O-NO 67 5 min 0 min 10,8 C 24,2 C 13,2 km/h (3 Bft)
24.04.2019 16:00 24,1 C 89 % 43 % 1003,5 hPa 0,0 l/m 9,2 km/h (2 Bft) O-NO 67 5 min 0 min 10,7 C 24,1 C 21,4 km/h (4 Bft)
24.04.2019 15:55 24,2 C 89 % 45 % 1003,5 hPa 0,0 l/m 9,2 km/h (2 Bft) N-NO 22 5 min 0 min 11,5 C 24,2 C 8,2 km/h (2 Bft)
24.04.2019 15:50 23,9 C 89 % 44 % 1003,5 hPa 0,0 l/m 10,5 km/h (2 Bft) N-NO 22 5 min 0 min 10,9 C 23,9 C 8,9 km/h (2 Bft)
24.04.2019 15:45 23,9 C 89 % 43 % 1003,8 hPa 0,0 l/m 10,1 km/h (2 Bft) NO 45 5 min 0 min 10,5 C 23,9 C 12,9 km/h (3 Bft)
24.04.2019 15:40 24,0 C 89 % 44 % 1003,8 hPa 0,0 l/m 8,5 km/h (2 Bft) O-NO 67 5 min 0 min 11,0 C 24,0 C 6,9 km/h (2 Bft)
24.04.2019 15:35 23,9 C 89 % 45 % 1003,8 hPa 0,0 l/m 7,4 km/h (2 Bft) NO 45 5 min 0 min 11,2 C 23,9 C 7,1 km/h (2 Bft)
24.04.2019 15:30 23,7 C 90 % 46 % 1003,8 hPa 0,0 l/m 8,4 km/h (2 Bft) S-SO 157 5 min 0 min 11,4 C 23,7 C 19,0 km/h (3 Bft)
24.04.2019 15:25 23,5 C 89 % 45 % 1004,1 hPa 0,0 l/m 9,3 km/h (2 Bft) N-NO 22 5 min 0 min 10,9 C 23,5 C 14,8 km/h (3 Bft)
24.04.2019 15:20 23,5 C 89 % 46 % 1004,1 hPa 0,0 l/m 8,7 km/h (2 Bft) N-NO 22 5 min 0 min 11,2 C 23,5 C 20,6 km/h (4 Bft)
24.04.2019 15:15 23,4 C 89 % 46 % 1004,1 hPa 0,0 l/m 9,0 km/h (2 Bft) O 90 5 min 0 min 11,1 C 23,4 C 8,2 km/h (2 Bft)
24.04.2019 15:10 23,2 C 89 % 46 % 1004,1 hPa 0,0 l/m 8,4 km/h (2 Bft) SO 135 5 min 0 min 10,9 C 23,2 C 16,1 km/h (3 Bft)
24.04.2019 15:05 23,2 C 90 % 46 % 1004,3 hPa 0,0 l/m 7,1 km/h (2 Bft) N-NO 22 5 min 0 min 10,9 C 23,2 C 9,2 km/h (2 Bft)
24.04.2019 15:00 23,2 C 90 % 47 % 1004,3 hPa 0,0 l/m 7,4 km/h (2 Bft) O-NO 67 5 min 0 min 11,3 C 23,2 C 8,0 km/h (2 Bft)
24.04.2019 14:55 23,0 C 89 % 47 % 1004,3 hPa 0,0 l/m 8,4 km/h (2 Bft) O-NO 67 5 min 0 min 11,1 C 23,0 C 8,5 km/h (2 Bft)
24.04.2019 14:50 23,0 C 90 % 46 % 1004,3 hPa 0,0 l/m 6,9 km/h (2 Bft) O-SO 112 5 min 0 min 10,7 C 23,0 C 4,8 km/h (1 Bft)
24.04.2019 14:45 23,1 C 90 % 45 % 1004,9 hPa 0,0 l/m 5,6 km/h (1 Bft) O-NO 67 5 min 0 min 10,5 C 23,1 C 11,7 km/h (2 Bft)
24.04.2019 14:40 22,9 C 90 % 46 % 1004,9 hPa 0,0 l/m 5,6 km/h (1 Bft) O 90 5 min 0 min 10,7 C 22,9 C 4,3 km/h (1 Bft)
24.04.2019 14:35 23,2 C 90 % 47 % 1004,9 hPa 0,0 l/m 4,7 km/h (1 Bft) SO 135 5 min 0 min 11,3 C 23,2 C 6,3 km/h (2 Bft)
24.04.2019 14:30 22,9 C 90 % 46 % 1004,9 hPa 0,0 l/m 5,0 km/h (1 Bft) N-NO 22 5 min 0 min 10,7 C 22,9 C 3,9 km/h (1 Bft)
24.04.2019 14:25 22,7 C 90 % 47 % 1005,0 hPa 0,0 l/m 6,8 km/h (2 Bft) SO 135 5 min 0 min 10,8 C 22,7 C 2,6 km/h (1 Bft)
24.04.2019 14:20 22,4 C 89 % 48 % 1005,0 hPa 0,0 l/m 6,9 km/h (2 Bft) O 90 5 min 0 min 10,8 C 22,4 C 15,0 km/h (3 Bft)
24.04.2019 14:15 22,0 C 89 % 49 % 1005,0 hPa 0,0 l/m 7,1 km/h (2 Bft) O-NO 67 5 min 0 min 10,8 C 22,0 C 4,2 km/h (1 Bft)
24.04.2019 14:10 22,1 C 89 % 48 % 1005,0 hPa 0,0 l/m 7,4 km/h (2 Bft) NO 45 5 min 0 min 10,6 C 22,1 C 13,5 km/h (3 Bft)
24.04.2019 14:05 22,0 C 89 % 48 % 1005,1 hPa 0,0 l/m 5,8 km/h (2 Bft) NO 45 5 min 0 min 10,5 C 22,0 C 10,0 km/h (2 Bft)
24.04.2019 14:00 21,5 C 90 % 50 % 1005,1 hPa 0,0 l/m 5,8 km/h (2 Bft) NO 45 5 min 0 min 10,6 C 21,5 C 10,9 km/h (2 Bft)
24.04.2019 13:55 21,7 C 90 % 49 % 1005,1 hPa 0,0 l/m 5,3 km/h (1 Bft) NO 45 5 min 0 min 10,5 C 21,7 C 6,4 km/h (2 Bft)
24.04.2019 13:50 21,5 C 90 % 49 % 1005,1 hPa 0,0 l/m 4,7 km/h (1 Bft) NO 45 5 min 0 min 10,3 C 21,5 C 10,3 km/h (2 Bft)
24.04.2019 13:45 21,3 C 91 % 52 % 1005,4 hPa 0,0 l/m 4,2 km/h (1 Bft) O 90 5 min 0 min 11,0 C 21,3 C 4,5 km/h (1 Bft)
24.04.2019 13:40 21,1 C 91 % 51 % 1005,4 hPa 0,0 l/m 3,5 km/h (1 Bft) N-NO 22 5 min 0 min 10,6 C 21,1 C 8,2 km/h (2 Bft)
24.04.2019 13:35 21,1 C 90 % 52 % 1005,4 hPa 0,0 l/m 3,7 km/h (1 Bft) N-NO 22 5 min 0 min 10,9 C 21,1 C 5,0 km/h (1 Bft)
24.04.2019 13:30 21,1 C 90 % 53 % 1005,4 hPa 0,0 l/m 3,4 km/h (1 Bft) NO 45 5 min 0 min 11,1 C 21,1 C 2,1 km/h (1 Bft)
24.04.2019 13:25 20,7 C 91 % 51 % 1005,7 hPa 0,0 l/m 3,7 km/h (1 Bft) O-NO 67 5 min 0 min 10,2 C 20,7 C 6,3 km/h (2 Bft)
24.04.2019 13:20 20,4 C 90 % 53 % 1005,7 hPa 0,0 l/m 3,7 km/h (1 Bft) NO 45 5 min 0 min 10,5 C 20,4 C 3,4 km/h (1 Bft)
24.04.2019 13:15 20,0 C 90 % 51 % 1005,7 hPa 0,0 l/m 3,9 km/h (1 Bft) O-SO 112 5 min 0 min 9,6 C 20,0 C 5,5 km/h (1 Bft)
24.04.2019 13:10 20,3 C 90 % 51 % 1005,7 hPa 0,0 l/m 3,4 km/h (1 Bft) N-NW 337 5 min 0 min 9,8 C 20,3 C 4,3 km/h (1 Bft)
24.04.2019 13:05 19,9 C 90 % 52 % 1006,0 hPa 0,0 l/m 3,2 km/h (1 Bft) S-SO 157 5 min 0 min 9,7 C 19,9 C 2,9 km/h (1 Bft)
24.04.2019 13:00 20,0 C 90 % 51 % 1006,0 hPa 0,0 l/m 4,2 km/h (1 Bft) O-SO 112 5 min 0 min 9,6 C 20,0 C 4,2 km/h (1 Bft)
24.04.2019 12:55 19,9 C 90 % 52 % 1006,0 hPa 0,0 l/m 4,2 km/h (1 Bft) N-NO 22 5 min 0 min 9,7 C 19,9 C 5,5 km/h (1 Bft)
24.04.2019 12:50 19,4 C 90 % 54 % 1006,0 hPa 0,0 l/m 3,2 km/h (1 Bft) NO 45 5 min 0 min 9,8 C 19,4 C 7,2 km/h (2 Bft)
24.04.2019 12:45 19,3 C 90 % 54 % 1006,5 hPa 0,0 l/m 2,9 km/h (1 Bft) O-NO 67 5 min 0 min 9,8 C 19,3 C 4,5 km/h (1 Bft)
24.04.2019 12:40 19,3 C 90 % 52 % 1006,5 hPa 0,0 l/m 2,9 km/h (1 Bft) W-NW 292 5 min 0 min 9,2 C 19,3 C 2,4 km/h (1 Bft)
24.04.2019 12:35 19,2 C 90 % 53 % 1006,5 hPa 0,0 l/m 2,4 km/h (1 Bft) O-NO 67 5 min 0 min 9,4 C 19,2 C 1,8 km/h (1 Bft)
24.04.2019 12:30 19,4 C 90 % 53 % 1006,5 hPa 0,0 l/m 3,9 km/h (1 Bft) O-NO 67 5 min 0 min 9,6 C 19,4 C 6,6 km/h (2 Bft)
24.04.2019 12:25 19,1 C 90 % 57 % 1006,1 hPa 0,0 l/m 3,5 km/h (1 Bft) O-SO 112 5 min 0 min 10,4 C 19,1 C 4,3 km/h (1 Bft)
24.04.2019 12:20 18,7 C 90 % 58 % 1006,1 hPa 0,0 l/m 3,9 km/h (1 Bft) SO 135 5 min 0 min 10,3 C 18,7 C 8,4 km/h (2 Bft)
24.04.2019 12:15 18,7 C 90 % 56 % 1006,1 hPa 0,0 l/m 3,2 km/h (1 Bft) O 90 5 min 0 min 9,7 C 18,7 C 4,2 km/h (1 Bft)
24.04.2019 12:10 18,4 C 90 % 58 % 1006,1 hPa 0,0 l/m 3,1 km/h (1 Bft) N-NO 22 5 min 0 min 10,0 C 18,4 C 4,3 km/h (1 Bft)
24.04.2019 12:05 17,9 C 90 % 59 % 1006,5 hPa 0,0 l/m 3,7 km/h (1 Bft) N-NO 22 5 min 0 min 9,8 C 17,9 C 2,9 km/h (1 Bft)
24.04.2019 12:00 17,7 C 90 % 58 % 1006,5 hPa 0,0 l/m 3,2 km/h (1 Bft) N-NO 22 5 min 0 min 9,3 C 17,7 C 7,1 km/h (2 Bft)
24.04.2019 11:55 17,8 C 90 % 60 % 1006,5 hPa 0,0 l/m 2,7 km/h (1 Bft) O-SO 112 5 min 0 min 9,9 C 17,8 C 2,1 km/h (1 Bft)
24.04.2019 11:50 17,5 C 89 % 57 % 1006,5 hPa 0,0 l/m 2,4 km/h (1 Bft) NO 45 5 min 0 min 8,9 C 17,5 C 0,0 km/h (0 Bft)
24.04.2019 11:45 17,6 C 89 % 59 % 1006,8 hPa 0,0 l/m 3,1 km/h (1 Bft) N-NW 337 5 min 0 min 9,5 C 17,6 C 5,1 km/h (1 Bft)
24.04.2019 11:40 17,4 C 89 % 61 % 1006,8 hPa 0,0 l/m 3,7 km/h (1 Bft) SO 135 5 min 0 min 9,8 C 17,4 C 0,0 km/h (0 Bft)
24.04.2019 11:35 17,2 C 88 % 60 % 1006,8 hPa 0,0 l/m 3,9 km/h (1 Bft) SO 135 5 min 0 min 9,4 C 17,2 C 6,9 km/h (2 Bft)
24.04.2019 11:30 17,1 C 89 % 62 % 1006,8 hPa 0,0 l/m 2,9 km/h (1 Bft) O-SO 112 5 min 0 min 9,8 C 17,1 C 7,9 km/h (2 Bft)
24.04.2019 11:25 17,0 C 89 % 63 % 1006,2 hPa 0,0 l/m 2,9 km/h (1 Bft) SO 135 5 min 0 min 9,9 C 17,0 C 4,0 km/h (1 Bft)
24.04.2019 11:20 17,1 C 89 % 62 % 1006,2 hPa 0,0 l/m 3,5 km/h (1 Bft) S-SO 157 5 min 0 min 9,8 C 17,1 C 3,5 km/h (1 Bft)
24.04.2019 11:15 16,6 C 89 % 65 % 1006,2 hPa 0,0 l/m 3,7 km/h (1 Bft) O-SO 112 5 min 0 min 10,0 C 16,6 C 7,7 km/h (2 Bft)
24.04.2019 11:10 16,4 C 88 % 67 % 1006,2 hPa 0,0 l/m 3,1 km/h (1 Bft) O-SO 112 5 min 0 min 10,3 C 16,4 C 4,3 km/h (1 Bft)
24.04.2019 11:05 16,2 C 88 % 66 % 1006,2 hPa 0,0 l/m 1,9 km/h (1 Bft) N 360 5 min 0 min 9,8 C 16,2 C 2,4 km/h (1 Bft)
24.04.2019 11:00 15,7 C 89 % 69 % 1006,2 hPa 0,0 l/m 1,8 km/h (1 Bft) O 90 5 min 0 min 10,0 C 15,7 C 0,0 km/h (0 Bft)
24.04.2019 10:55 15,5 C 89 % 68 % 1006,2 hPa 0,0 l/m 2,6 km/h (1 Bft) N-NW 337 5 min 0 min 9,6 C 15,5 C 0,0 km/h (0 Bft)
24.04.2019 10:50 15,5 C 88 % 69 % 1006,2 hPa 0,0 l/m 2,6 km/h (1 Bft) O-NO 67 5 min 0 min 9,8 C 15,5 C 1,8 km/h (1 Bft)
24.04.2019 10:45 15,2 C 88 % 69 % 1005,7 hPa 0,0 l/m 2,9 km/h (1 Bft) SO 135 5 min 0 min 9,6 C 15,2 C 9,5 km/h (2 Bft)
24.04.2019 10:40 15,1 C 88 % 69 % 1005,7 hPa 0,0 l/m 2,1 km/h (1 Bft) N-NO 22 5 min 0 min 9,5 C 15,1 C 0,0 km/h (0 Bft)
24.04.2019 10:35 14,9 C 88 % 71 % 1005,7 hPa 0,0 l/m 2,4 km/h (1 Bft) N-NO 22 5 min 0 min 9,7 C 14,9 C 0,0 km/h (0 Bft)
24.04.2019 10:30 14,7 C 86 % 72 % 1005,7 hPa 0,0 l/m 3,2 km/h (1 Bft) O-NO 67 5 min 0 min 9,7 C 14,7 C 2,6 km/h (1 Bft)
24.04.2019 10:25 14,4 C 86 % 72 % 1006,1 hPa 0,0 l/m 2,9 km/h (1 Bft) O-NO 67 5 min 0 min 9,4 C 14,4 C 3,2 km/h (1 Bft)
24.04.2019 10:20 14,2 C 85 % 71 % 1006,1 hPa 0,0 l/m 2,3 km/h (1 Bft) O-NO 67 5 min 0 min 9,0 C 14,2 C 4,5 km/h (1 Bft)
24.04.2019 10:15 13,9 C 83 % 73 % 1006,1 hPa 0,0 l/m 1,4 km/h (1 Bft) O-SO 112 0 min 0 min 9,1 C 13,9 C 4,2 km/h (1 Bft)
24.04.2019 10:10 13,8 C 86 % 73 % 1006,1 hPa 0,0 l/m 1,6 km/h (1 Bft) W-SW 247 5 min 0 min 9,0 C 13,8 C 2,7 km/h (1 Bft)
24.04.2019 10:05 13,7 C 86 % 74 % 1003,2 hPa 0,0 l/m 2,3 km/h (1 Bft) O-SO 112 5 min 0 min 9,2 C 13,7 C 2,4 km/h (1 Bft)
24.04.2019 10:00 13,4 C 86 % 74 % 1003,2 hPa 0,0 l/m 1,8 km/h (1 Bft) W 270 5 min 0 min 8,9 C 13,4 C 2,1 km/h (1 Bft)
24.04.2019 09:55 13,1 C 85 % 75 % 1003,2 hPa 0,0 l/m 2,4 km/h (1 Bft) O-NO 67 5 min 0 min 8,8 C 13,1 C 1,9 km/h (1 Bft)
24.04.2019 09:50 12,9 C 85 % 76 % 1003,2 hPa 0,0 l/m 2,4 km/h (1 Bft) W-NW 292 0 min 0 min 8,8 C 12,9 C 0,0 km/h (0 Bft)
24.04.2019 09:45 12,6 C 84 % 78 % 1004,9 hPa 0,0 l/m 2,6 km/h (1 Bft) N-NO 22 0 min 0 min 8,9 C 12,6 C 6,8 km/h (2 Bft)
24.04.2019 09:40 12,6 C 83 % 77 % 1004,9 hPa 0,0 l/m 1,9 km/h (1 Bft) N-NO 22 0 min 0 min 8,7 C 12,6 C 2,1 km/h (1 Bft)
24.04.2019 09:35 12,3 C 83 % 79 % 1004,9 hPa 0,0 l/m 1,1 km/h (1 Bft) O-NO 67 0 min 0 min 8,8 C 12,3 C 0,0 km/h (0 Bft)
24.04.2019 09:30 12,1 C 82 % 77 % 1004,9 hPa 0,0 l/m 1,3 km/h (1 Bft) O-SO 112 0 min 0 min 8,2 C 12,1 C 0,0 km/h (0 Bft)
24.04.2019 09:25 12,0 C 81 % 79 % 1004,7 hPa 0,0 l/m 1,4 km/h (1 Bft) S-SO 157 0 min 0 min 8,5 C 12,0 C 2,7 km/h (1 Bft)
24.04.2019 09:20 12,0 C 81 % 79 % 1004,7 hPa 0,0 l/m 0,8 km/h (0 Bft) S-SW 202 0 min 0 min 8,5 C 12,0 C 0,0 km/h (0 Bft)
24.04.2019 09:15 11,7 C 80 % 79 % 1004,7 hPa 0,0 l/m 1,0 km/h (0 Bft) NO 45 0 min 0 min 8,2 C 11,7 C 3,5 km/h (1 Bft)
24.04.2019 09:10 11,7 C 80 % 79 % 1004,7 hPa 0,0 l/m 1,4 km/h (1 Bft) SO 135 0 min 0 min 8,2 C 11,7 C 0,0 km/h (0 Bft)
24.04.2019 09:05 11,6 C 79 % 79 % 1004,7 hPa 0,0 l/m 2,4 km/h (1 Bft) N-NO 22 0 min 0 min 8,1 C 11,6 C 2,3 km/h (1 Bft)
24.04.2019 09:00 11,4 C 79 % 80 % 1004,7 hPa 0,0 l/m 2,1 km/h (1 Bft) N-NW 337 0 min 0 min 8,1 C 11,4 C 0,0 km/h (0 Bft)
24.04.2019 08:55 11,3 C 78 % 80 % 1004,7 hPa 0,0 l/m 1,1 km/h (1 Bft) N-NO 22 0 min 0 min 8,0 C 11,3 C 4,2 km/h (1 Bft)
24.04.2019 08:50 11,1 C 77 % 81 % 1004,7 hPa 0,0 l/m 0,8 km/h (0 Bft) O 90 0 min 0 min 8,0 C 11,1 C 3,5 km/h (1 Bft)
24.04.2019 08:45 10,9 C 76 % 81 % 1004,2 hPa 0,0 l/m 0,3 km/h (0 Bft) N-NO 22 0 min 0 min 7,8 C 10,9 C 0,0 km/h (0 Bft)
24.04.2019 08:40 10,8 C 76 % 81 % 1004,2 hPa 0,0 l/m 0,3 km/h (0 Bft) O-SO 112 0 min 0 min 7,7 C 10,8 C 0,0 km/h (0 Bft)
24.04.2019 08:35 10,5 C 75 % 83 % 1004,2 hPa 0,0 l/m 0,2 km/h (0 Bft) NO 45 0 min 0 min 7,7 C 10,5 C 0,0 km/h (0 Bft)
24.04.2019 08:30 10,4 C 74 % 83 % 1004,2 hPa 0,0 l/m 0,3 km/h (0 Bft) O-NO 67 0 min 0 min 7,6 C 10,4 C 3,4 km/h (1 Bft)
24.04.2019 08:25 10,3 C 73 % 84 % 1004,0 hPa 0,0 l/m 0,5 km/h (0 Bft) O 90 0 min 0 min 7,7 C 10,3 C 0,0 km/h (0 Bft)
24.04.2019 08:20 10,1 C 72 % 84 % 1004,0 hPa 0,0 l/m 1,1 km/h (1 Bft) NO 45 0 min 0 min 7,5 C 10,1 C 1,6 km/h (1 Bft)
24.04.2019 08:15 9,9 C 70 % 85 % 1004,0 hPa 0,0 l/m 1,0 km/h (0 Bft) NW 315 0 min 0 min 7,5 C 9,9 C 0,0 km/h (0 Bft)
24.04.2019 08:10 9,8 C 69 % 85 % 1004,0 hPa 0,0 l/m 0,5 km/h (0 Bft) NW 315 0 min 0 min 7,4 C 9,8 C 4,3 km/h (1 Bft)
24.04.2019 08:05 9,6 C 68 % 86 % 1003,7 hPa 0,0 l/m 0,2 km/h (0 Bft) W-NW 292 0 min 0 min 7,4 C 9,6 C 0,0 km/h (0 Bft)
24.04.2019 08:00 9,5 C 67 % 86 % 1003,7 hPa 0,0 l/m 0,2 km/h (0 Bft) N 360 0 min 0 min 7,3 C 9,5 C 0,0 km/h (0 Bft)
24.04.2019 07:55 9,3 C 65 % 87 % 1003,7 hPa 0,0 l/m 0,2 km/h (0 Bft) W-NW 292 0 min 0 min 7,2 C 9,3 C 1,8 km/h (1 Bft)
24.04.2019 07:50 9,2 C 57 % 87 % 1003,7 hPa 0,0 l/m 0,0 km/h (0 Bft) NW 315 0 min 0 min 7,2 C 9,2 C 0,0 km/h (0 Bft)
24.04.2019 07:45 9,1 C 49 % 87 % 1003,5 hPa 0,0 l/m 0,0 km/h (0 Bft) O-SO 112 0 min 0 min 7,1 C 9,1 C 0,0 km/h (0 Bft)
24.04.2019 07:40 8,9 C 61 % 87 % 1003,5 hPa 0,0 l/m 0,3 km/h (0 Bft) W 270 0 min 0 min 6,9 C 8,9 C 0,0 km/h (0 Bft)
24.04.2019 07:35 8,9 C 47 % 87 % 1003,5 hPa 0,0 l/m 0,5 km/h (0 Bft) N-NO 22 0 min 0 min 6,9 C 8,9 C 0,0 km/h (0 Bft)
24.04.2019 07:30 8,8 C 51 % 87 % 1003,5 hPa 0,0 l/m 0,8 km/h (0 Bft) W-SW 247 0 min 0 min 6,8 C 8,8 C 2,6 km/h (1 Bft)
24.04.2019 07:25 8,7 C 46 % 87 % 1003,4 hPa 0,0 l/m 0,8 km/h (0 Bft) N-NW 337 0 min 0 min 6,7 C 8,7 C 0,0 km/h (0 Bft)
24.04.2019 07:20 8,5 C 45 % 87 % 1003,4 hPa 0,0 l/m 0,5 km/h (0 Bft) W-SW 247 0 min 0 min 6,5 C 8,5 C 0,0 km/h (0 Bft)
24.04.2019 07:15 8,4 C 40 % 87 % 1003,4 hPa 0,0 l/m 0,0 km/h (0 Bft) NW 315 0 min 0 min 6,4 C 8,4 C 0,0 km/h (0 Bft)
24.04.2019 07:10 8,3 C 39 % 87 % 1003,4 hPa 0,0 l/m 0,0 km/h (0 Bft) S-SO 157 0 min 0 min 6,3 C 8,3 C 0,0 km/h (0 Bft)
24.04.2019 07:05 8,1 C 38 % 87 % 1003,2 hPa 0,0 l/m 0,6 km/h (0 Bft) SW 225 0 min 0 min 6,1 C 8,1 C 0,0 km/h (0 Bft)
24.04.2019 07:00 7,9 C 37 % 87 % 1003,2 hPa 0,0 l/m 1,3 km/h (1 Bft) W 270 0 min 0 min 5,9 C 7,9 C 1,6 km/h (1 Bft)
24.04.2019 06:55 7,7 C 38 % 87 % 1003,2 hPa 0,0 l/m 1,1 km/h (1 Bft) W-SW 247 0 min 0 min 5,7 C 7,7 C 2,9 km/h (1 Bft)
24.04.2019 06:50 7,6 C 35 % 87 % 1003,2 hPa 0,0 l/m 0,5 km/h (0 Bft) W-NW 292 0 min 0 min 5,6 C 7,6 C 1,9 km/h (1 Bft)
24.04.2019 06:45 7,5 C 29 % 86 % 1002,9 hPa 0,0 l/m 0,0 km/h (0 Bft) W 270 0 min 0 min 5,3 C 7,5 C 0,0 km/h (0 Bft)
24.04.2019 06:40 7,5 C 27 % 86 % 1002,9 hPa 0,0 l/m 0,0 km/h (0 Bft) W-SW 247 0 min 0 min 5,3 C 7,5 C 0,0 km/h (0 Bft)
24.04.2019 06:35 7,5 C 22 % 86 % 1002,9 hPa 0,0 l/m 0,2 km/h (0 Bft) S 180 0 min 0 min 5,3 C 7,5 C 0,0 km/h (0 Bft)
24.04.2019 06:30 7,5 C 18 % 86 % 1002,9 hPa 0,0 l/m 0,2 km/h (0 Bft) S 180 0 min 0 min 5,3 C 7,5 C 0,0 km/h (0 Bft)
24.04.2019 06:25 7,6 C 12 % 86 % 1002,8 hPa 0,0 l/m 0,2 km/h (0 Bft) W 270 0 min 0 min 5,4 C 7,6 C 0,0 km/h (0 Bft)
24.04.2019 06:20 7,7 C 9 % 86 % 1002,8 hPa 0,0 l/m 0,0 km/h (0 Bft) SW 225 0 min 0 min 5,5 C 7,7 C 0,0 km/h (0 Bft)
24.04.2019 06:15 7,7 C 4 % 85 % 1002,8 hPa 0,0 l/m 0,0 km/h (0 Bft) SW 225 0 min 0 min 5,3 C 7,7 C 0,0 km/h (0 Bft)
24.04.2019 06:10 7,7 C 1 % 85 % 1002,8 hPa 0,0 l/m 0,0 km/h (0 Bft) W-SW 247 0 min 0 min 5,3 C 7,7 C 0,0 km/h (0 Bft)
24.04.2019 06:05 7,8 C 0 % 85 % 1002,6 hPa 0,0 l/m 0,0 km/h (0 Bft) W-SW 247 0 min 0 min 5,4 C 7,8 C 0,0 km/h (0 Bft)
24.04.2019 06:00 7,9 C 0 % 85 % 1002,6 hPa 0,0 l/m 0,0 km/h (0 Bft) W-NW 292 0 min 0 min 5,5 C 7,9 C 0,0 km/h (0 Bft)
24.04.2019 05:55 7,9 C 0 % 84 % 1002,6 hPa 0,0 l/m 0,0 km/h (0 Bft) W-SW 247 0 min 0 min 5,4 C 7,9 C 0,0 km/h (0 Bft)
24.04.2019 05:50 8,0 C 0 % 84 % 1002,6 hPa 0,0 l/m 0,2 km/h (0 Bft) S-SW 202 0 min 0 min 5,5 C 8,0 C 0,0 km/h (0 Bft)
24.04.2019 05:45 8,2 C 0 % 84 % 1002,9 hPa 0,0 l/m 0,2 km/h (0 Bft) W 270 0 min 0 min 5,7 C 8,2 C 0,0 km/h (0 Bft)
24.04.2019 05:40 8,3 C 0 % 83 % 1002,9 hPa 0,0 l/m 0,0 km/h (0 Bft) NW 315 0 min 0 min 5,6 C 8,3 C 1,6 km/h (1 Bft)
24.04.2019 05:35 8,4 C 0 % 83 % 1002,9 hPa 0,0 l/m 0,0 km/h (0 Bft) W 270 0 min 0 min 5,7 C 8,4 C 0,0 km/h (0 Bft)
24.04.2019 05:30 8,5 C 0 % 83 % 1002,9 hPa 0,0 l/m 0,0 km/h (0 Bft) S-SW 202 0 min 0 min 5,8 C 8,5 C 0,0 km/h (0 Bft)
24.04.2019 05:25 8,7 C 0 % 83 % 1002,7 hPa 0,0 l/m 0,0 km/h (0 Bft) S-SW 202 0 min 0 min 6,0 C 8,7 C 0,0 km/h (0 Bft)
24.04.2019 05:20 8,7 C 0 % 83 % 1002,7 hPa 0,0 l/m 0,0 km/h (0 Bft) SW 225 0 min 0 min 6,0 C 8,7 C 0,0 km/h (0 Bft)
24.04.2019 05:15 8,8 C 0 % 82 % 1002,7 hPa 0,0 l/m 0,0 km/h (0 Bft) W-SW 247 0 min 0 min 5,9 C 8,8 C 0,0 km/h (0 Bft)
24.04.2019 05:10 8,9 C 0 % 82 % 1002,7 hPa 0,0 l/m 0,0 km/h (0 Bft) W 270 0 min 0 min 6,0 C 8,9 C 0,0 km/h (0 Bft)
24.04.2019 05:05 9,0 C 0 % 82 % 1002,8 hPa 0,0 l/m 0,0 km/h (0 Bft) W-SW 247 0 min 0 min 6,1 C 9,0 C 0,0 km/h (0 Bft)
24.04.2019 05:00 9,1 C 0 % 82 % 1002,8 hPa 0,0 l/m 0,0 km/h (0 Bft) W-SW 247 0 min 0 min 6,2 C 9,1 C 0,0 km/h (0 Bft)
24.04.2019 04:55 9,2 C 0 % 81 % 1002,8 hPa 0,0 l/m 0,0 km/h (0 Bft) S 180 0 min 0 min 6,1 C 9,2 C 0,0 km/h (0 Bft)
24.04.2019 04:50 9,3 C 0 % 81 % 1002,8 hPa 0,0 l/m 0,0 km/h (0 Bft) O 90 0 min 0 min 6,2 C 9,3 C 0,0 km/h (0 Bft)
24.04.2019 04:45 9,5 C 0 % 80 % 1002,8 hPa 0,0 l/m 0,0 km/h (0 Bft) W 270 0 min 0 min 6,2 C 9,5 C 0,0 km/h (0 Bft)
24.04.2019 04:40 9,7 C 0 % 80 % 1002,8 hPa 0,0 l/m 0,0 km/h (0 Bft) W-SW 247 0 min 0 min 6,4 C 9,7 C 0,0 km/h (0 Bft)
24.04.2019 04:35 9,7 C 0 % 80 % 1002,8 hPa 0,0 l/m 0,0 km/h (0 Bft) SW 225 0 min 0 min 6,4 C 9,7 C 0,0 km/h (0 Bft)
24.04.2019 04:30 9,8 C 0 % 80 % 1002,8 hPa 0,0 l/m 0,0 km/h (0 Bft) SW 225 0 min 0 min 6,5 C 9,8 C 0,0 km/h (0 Bft)
24.04.2019 04:25 10,0 C 0 % 79 % 1002,8 hPa 0,0 l/m 0,0 km/h (0 Bft) N-NO 22 0 min 0 min 6,5 C 10,0 C 0,0 km/h (0 Bft)
24.04.2019 04:20 10,1 C 0 % 79 % 1002,8 hPa 0,0 l/m 0,0 km/h (0 Bft) N-NW 337 0 min 0 min 6,6 C 10,1 C 0,0 km/h (0 Bft)
24.04.2019 04:15 10,3 C 0 % 78 % 1002,8 hPa 0,0 l/m 0,0 km/h (0 Bft) NW 315 0 min 0 min 6,6 C 10,3 C 0,0 km/h (0 Bft)
24.04.2019 04:10 10,4 C 0 % 78 % 1002,8 hPa 0,0 l/m 0,0 km/h (0 Bft) N-NW 337 0 min 0 min 6,7 C 10,4 C 0,0 km/h (0 Bft)
24.04.2019 04:05 10,5 C 0 % 78 % 1002,4 hPa 0,0 l/m 0,2 km/h (0 Bft) O 90 0 min 0 min 6,8 C 10,5 C 0,0 km/h (0 Bft)
24.04.2019 04:00 10,5 C 0 % 78 % 1002,4 hPa 0,0 l/m 0,5 km/h (0 Bft) N-NO 22 0 min 0 min 6,8 C 10,5 C 0,0 km/h (0 Bft)
24.04.2019 03:55 10,6 C 0 % 78 % 1002,4 hPa 0,0 l/m 1,4 km/h (1 Bft) O-SO 112 0 min 0 min 6,9 C 10,6 C 1,6 km/h (1 Bft)
24.04.2019 03:50 10,6 C 0 % 78 % 1002,4 hPa 0,0 l/m 1,4 km/h (1 Bft) N-NW 337 0 min 0 min 6,9 C 10,6 C 1,9 km/h (1 Bft)
24.04.2019 03:45 10,7 C 0 % 77 % 1002,6 hPa 0,0 l/m 1,0 km/h (0 Bft) O 90 0 min 0 min 6,8 C 10,7 C 5,3 km/h (1 Bft)
24.04.2019 03:40 10,7 C 0 % 77 % 1002,6 hPa 0,0 l/m 0,8 km/h (0 Bft) O 90 0 min 0 min 6,8 C 10,7 C 0,0 km/h (0 Bft)
24.04.2019 03:35 10,8 C 0 % 77 % 1002,6 hPa 0,0 l/m 1,3 km/h (1 Bft) O-NO 67 0 min 0 min 6,9 C 10,8 C 1,9 km/h (1 Bft)
24.04.2019 03:30 10,8 C 0 % 77 % 1002,6 hPa 0,0 l/m 1,3 km/h (1 Bft) N-NW 337 0 min 0 min 6,9 C 10,8 C 1,8 km/h (1 Bft)
24.04.2019 03:25 10,9 C 0 % 76 % 1002,6 hPa 0,0 l/m 0,8 km/h (0 Bft) O 90 0 min 0 min 6,8 C 10,9 C 1,6 km/h (1 Bft)
24.04.2019 03:20 10,9 C 0 % 76 % 1002,6 hPa 0,0 l/m 0,5 km/h (0 Bft) O 90 0 min 0 min 6,8 C 10,9 C 3,4 km/h (1 Bft)
24.04.2019 03:15 10,9 C 0 % 76 % 1002,6 hPa 0,0 l/m 0,3 km/h (0 Bft) N-NO 22 0 min 0 min 6,8 C 10,9 C 0,0 km/h (0 Bft)
24.04.2019 03:15 10,9 C 0 % 76 % 1002,6 hPa 0,0 l/m 0,3 km/h (0 Bft) N-NO 22 0 min 0 min 6,8 C 10,9 C 0,0 km/h (0 Bft)
24.04.2019 03:12 11,0 C 0 % 76 % 1002,6 hPa 0,0 l/m 0,3 km/h (0 Bft) N-NO 22 0 min 0 min 6,9 C 11,0 C 0,0 km/h (0 Bft)
24.04.2019 03:10 11,0 C 0 % 76 % 1002,6 hPa 0,0 l/m 0,3 km/h (0 Bft) N-NO 22 0 min 0 min 6,9 C 11,0 C 0,0 km/h (0 Bft)
24.04.2019 03:05 11,1 C 0 % 76 % 1002,6 hPa 0,0 l/m 0,2 km/h (0 Bft) NW 315 0 min 0 min 7,0 C 11,1 C 0,0 km/h (0 Bft)
24.04.2019 03:00 11,1 C 0 % 75 % 1002,6 hPa 0,0 l/m 0,2 km/h (0 Bft) N-NO 22 0 min 0 min 6,8 C 11,1 C 0,0 km/h (0 Bft)
24.04.2019 02:55 11,1 C 0 % 75 % 1002,6 hPa 0,0 l/m 1,3 km/h (1 Bft) O-SO 112 0 min 0 min 6,8 C 11,1 C 1,8 km/h (1 Bft)
24.04.2019 02:50 11,2 C 0 % 75 % 1002,6 hPa 0,0 l/m 1,4 km/h (1 Bft) O-SO 112 0 min 0 min 6,9 C 11,2 C 0,0 km/h (0 Bft)
24.04.2019 02:45 11,3 C 0 % 75 % 1002,6 hPa 0,0 l/m 0,8 km/h (0 Bft) O 90 0 min 0 min 7,0 C 11,3 C 0,0 km/h (0 Bft)
24.04.2019 02:40 11,3 C 0 % 74 % 1002,6 hPa 0,0 l/m 0,8 km/h (0 Bft) O-NO 67 0 min 0 min 6,8 C 11,3 C 3,7 km/h (1 Bft)
24.04.2019 02:35 11,3 C 0 % 74 % 1002,6 hPa 0,0 l/m 1,3 km/h (1 Bft) O-SO 112 0 min 0 min 6,8 C 11,3 C 2,1 km/h (1 Bft)
24.04.2019 02:30 11,4 C 0 % 74 % 1002,6 hPa 0,0 l/m 2,1 km/h (1 Bft) SO 135 0 min 0 min 6,9 C 11,4 C 0,0 km/h (0 Bft)
24.04.2019 02:25 11,4 C 0 % 74 % 1003,0 hPa 0,0 l/m 1,8 km/h (1 Bft) O-SO 112 0 min 0 min 6,9 C 11,4 C 0,0 km/h (0 Bft)
24.04.2019 02:20 11,5 C 0 % 74 % 1003,0 hPa 0,0 l/m 1,9 km/h (1 Bft) O-SO 112 0 min 0 min 7,0 C 11,5 C 4,8 km/h (1 Bft)
24.04.2019 02:15 11,5 C 0 % 74 % 1003,0 hPa 0,0 l/m 2,1 km/h (1 Bft) NO 45 0 min 0 min 7,0 C 11,5 C 3,1 km/h (1 Bft)
24.04.2019 02:10 11,6 C 0 % 73 % 1003,0 hPa 0,0 l/m 1,9 km/h (1 Bft) NO 45 0 min 0 min 6,9 C 11,6 C 2,4 km/h (1 Bft)
24.04.2019 02:05 11,6 C 0 % 73 % 1002,9 hPa 0,0 l/m 1,9 km/h (1 Bft) N-NO 22 0 min 0 min 6,9 C 11,6 C 3,4 km/h (1 Bft)
24.04.2019 02:00 11,6 C 0 % 73 % 1002,9 hPa 0,0 l/m 2,3 km/h (1 Bft) O-SO 112 0 min 0 min 6,9 C 11,6 C 2,9 km/h (1 Bft)
24.04.2019 01:55 11,7 C 0 % 73 % 1002,9 hPa 0,0 l/m 2,1 km/h (1 Bft) O-NO 67 0 min 0 min 7,0 C 11,7 C 0,0 km/h (0 Bft)
24.04.2019 01:50 11,7 C 0 % 73 % 1002,9 hPa 0,0 l/m 2,1 km/h (1 Bft) O-NO 67 0 min 0 min 7,0 C 11,7 C 2,1 km/h (1 Bft)
24.04.2019 01:45 11,7 C 0 % 73 % 1002,9 hPa 0,0 l/m 2,6 km/h (1 Bft) O-NO 67 0 min 0 min 7,0 C 11,7 C 5,5 km/h (1 Bft)
24.04.2019 01:40 11,7 C 0 % 72 % 1002,9 hPa 0,0 l/m 2,7 km/h (1 Bft) O 90 0 min 0 min 6,8 C 11,7 C 2,3 km/h (1 Bft)
24.04.2019 01:35 11,7 C 0 % 72 % 1002,9 hPa 0,0 l/m 2,4 km/h (1 Bft) O-NO 67 0 min 0 min 6,8 C 11,7 C 5,1 km/h (1 Bft)
24.04.2019 01:30 11,8 C 0 % 72 % 1002,9 hPa 0,0 l/m 1,6 km/h (1 Bft) N-NO 22 0 min 0 min 6,9 C 11,8 C 2,6 km/h (1 Bft)
24.04.2019 01:25 11,8 C 0 % 72 % 1002,7 hPa 0,0 l/m 1,3 km/h (1 Bft) NO 45 0 min 0 min 6,9 C 11,8 C 0,0 km/h (0 Bft)
24.04.2019 01:20 11,8 C 0 % 72 % 1002,7 hPa 0,0 l/m 1,0 km/h (0 Bft) O-SO 112 0 min 0 min 6,9 C 11,8 C 1,8 km/h (1 Bft)
24.04.2019 01:15 11,9 C 0 % 71 % 1002,7 hPa 0,0 l/m 1,4 km/h (1 Bft) N-NO 22 0 min 0 min 6,8 C 11,9 C 3,2 km/h (1 Bft)
24.04.2019 01:10 11,9 C 0 % 71 % 1002,7 hPa 0,0 l/m 2,1 km/h (1 Bft) O 90 0 min 0 min 6,8 C 11,9 C 2,3 km/h (1 Bft)
24.04.2019 01:05 11,9 C 0 % 71 % 1002,9 hPa 0,0 l/m 2,9 km/h (1 Bft) N 360 0 min 0 min 6,8 C 11,9 C 0,0 km/h (0 Bft)
24.04.2019 01:00 11,9 C 0 % 71 % 1002,9 hPa 0,0 l/m 3,7 km/h (1 Bft) O-NO 67 0 min 0 min 6,8 C 11,9 C 4,8 km/h (1 Bft)
24.04.2019 00:55 11,9 C 0 % 71 % 1002,9 hPa 0,0 l/m 3,7 km/h (1 Bft) O-NO 67 0 min 0 min 6,8 C 11,9 C 3,7 km/h (1 Bft)
24.04.2019 00:50 11,9 C 0 % 71 % 1002,9 hPa 0,0 l/m 2,7 km/h (1 Bft) W-SW 247 0 min 0 min 6,8 C 11,9 C 9,8 km/h (2 Bft)
24.04.2019 00:45 11,9 C 0 % 71 % 1002,8 hPa 0,0 l/m 1,3 km/h (1 Bft) O-NO 67 0 min 0 min 6,8 C 11,9 C 4,2 km/h (1 Bft)
24.04.2019 00:40 11,9 C 0 % 71 % 1002,8 hPa 0,0 l/m 1,3 km/h (1 Bft) O 90 0 min 0 min 6,8 C 11,9 C 3,2 km/h (1 Bft)
24.04.2019 00:35 12,0 C 0 % 71 % 1002,8 hPa 0,0 l/m 1,6 km/h (1 Bft) N 360 0 min 0 min 6,9 C 12,0 C 0,0 km/h (0 Bft)
24.04.2019 00:30 12,0 C 0 % 70 % 1002,8 hPa 0,0 l/m 2,4 km/h (1 Bft) NO 45 0 min 0 min 6,7 C 12,0 C 5,8 km/h (2 Bft)
24.04.2019 00:25 12,1 C 0 % 70 % 1002,6 hPa 0,0 l/m 2,6 km/h (1 Bft) NO 45 0 min 0 min 6,8 C 12,1 C 2,6 km/h (1 Bft)
24.04.2019 00:20 12,1 C 0 % 70 % 1002,6 hPa 0,0 l/m 1,8 km/h (1 Bft) SO 135 0 min 0 min 6,8 C 12,1 C 5,1 km/h (1 Bft)
24.04.2019 00:15 12,1 C 0 % 70 % 1002,6 hPa 0,0 l/m 1,1 km/h (1 Bft) O-NO 67 0 min 0 min 6,8 C 12,1 C 2,6 km/h (1 Bft)
24.04.2019 00:10 12,1 C 0 % 69 % 1002,6 hPa 0,0 l/m 2,3 km/h (1 Bft) NO 45 0 min 0 min 6,6 C 12,1 C 0,0 km/h (0 Bft)
24.04.2019 00:05 12,2 C 0 % 69 % 1002,6 hPa 0,0 l/m 3,1 km/h (1 Bft) O-NO 67 0 min 0 min 6,7 C 12,2 C 4,0 km/h (1 Bft)
24.04.2019 00:00 12,2 C 0 % 68 % 1002,6 hPa 0,0 l/m 2,7 km/h (1 Bft) O-SO 112 0 min 0 min 6,5 C 12,2 C 3,9 km/h (1 Bft)
_ Min-Zeit 06:30 - 16:45 03:50 - 04:10 - - - - 06:30 06:30 00:10
Minimum _ 7,5 C - 41 % 1002,4 hPa - 0,0 km/h (0 Bft) - - - - 5,3 C 7,5 C 0,0 km/h (0 Bft)
_ Max-Zeit 16:45 13:25 06:50 11:30 00:00 16:20 - - 09:55 00:00 16:25 16:45 17:20
Maximum _ 24,8 C 91 % 87 % 1006,8 hPa 0,0 l/m 11,6 km/h
O-NO (2 Bft)
- - 5 min 0 min 11,5 C 24,8 C 22,7 km/h
NW (4 Bft)
Durchschnitt _ 14,9 C #7:20 h 67 % 1003,9 hPa #0,0 l/m 3,1 km/h (1 Bft) NO - #7:20 h #0 min. 8,3 C 14,9 C 4,1 km/h (1 Bft)